Home   Weather   Recife   Past weeks
Flag for Brazil

Past Weather in Recife, Pernambuco, Brazil — Yesterday and Last 2 Weeks

Now
75 °F

Passing clouds.


Feels Like: 75 °F
Forecast: 81 / 76 °F
Wind: 3 mph from Northwest

Location: Recife Aeroporto

Current Time: Oct 22, 2019 at 3:14:53 am

Latest Report: Oct 22, 2019 at 2:00 am


Visibility: N/A

Pressure: 29.86 "Hg

Humidity: 83%

Dew Point: 70 °F

Location of RecifeLocation

Past Weather in Recife — Graph

°F

Recife Temperature Yesterday

Maximum temperature yesterday: 84 °F (at 10:00 am)
Minimum temperature yesterday: 75 °F (at 2:00 am)
Average temperature yesterday: 79 °F

High & Low Weather Summary for the Past Weeks

 TemperatureHumidityPressure
High84 °F (Oct 11, 11:00 am)100% (Oct 18, 1:00 pm)30.01 "Hg (Oct 18, 1:00 pm)
Low72 °F (Oct 14, 11:00 pm)55% (Oct 21, 11:00 am)29.83 "Hg (Oct 20, 2:00 pm)
Average79 °F76%29.94 "Hg
* Reported Oct 7 2:00 am — Oct 22 2:00 am, Recife. Weather by CustomWeather, © 2019

Note: Actual official high and low records may vary slightly from our data, if they occured in-between our weather recording intervals... More about our weather records

Advertising

Recife Weather History for the Previous 24 Hours

Scroll right to see more
 ConditionsComfort  
Time TempWeatherWind HumidityBarometerVisibility
2:00 am
Tue, Oct 22
75 °FPassing clouds.3 mph83%29.86 "HgN/A
1:00 am75 °FPassing clouds.3 mph83%29.86 "HgN/A
12:00 am77 °FPassing clouds.5 mph79%29.86 "HgN/A
11:00 pm
Mon, Oct 21
79 °FPassing clouds.6 mph74%29.89 "HgN/A
10:00 pm79 °FPassing clouds.8 mph74%29.89 "HgN/A
9:00 pm79 °FPassing clouds.6 mph74%29.89 "HgN/A
8:00 pm79 °FPassing clouds.8 mph74%29.89 "HgN/A
7:00 pm79 °FPassing clouds.7 mph74%29.86 "HgN/A
6:00 pm81 °FPassing clouds.7 mph70%29.83 "HgN/A
5:00 pm81 °FPassing clouds.8 mph66%29.83 "HgN/A
4:00 pm82 °FPassing clouds.9 mph62%29.83 "HgN/A
3:00 pm82 °FPassing clouds.9 mph66%29.83 "HgN/A
2:00 pm82 °FPassing clouds.10 mph62%29.86 "HgN/A
1:00 pm82 °FScattered clouds.9 mph66%29.86 "HgN/A
12:00 pm84 °FScattered clouds.10 mph62%29.89 "HgN/A
11:00 am84 °FPassing clouds.8 mph55%29.92 "HgN/A
10:00 am84 °FPartly sunny.8 mph58%29.92 "HgN/A
9:00 am82 °FPartly sunny.6 mph58%29.92 "HgN/A
8:00 am79 °FBroken clouds.3 mph79%29.92 "HgN/A
7:00 am77 °FBroken clouds.2 mph83%29.92 "HgN/A
6:00 am75 °FPartly sunny.2 mph89%29.89 "HgN/A
5:00 am75 °FScattered clouds.3 mph83%29.86 "HgN/A
4:00 am77 °FPassing clouds.5 mph74%29.86 "HgN/A
3:00 am75 °FPassing clouds.2 mph83%29.86 "HgN/A
Weather by CustomWeather, © 2019

See weather overview